[[{"header":{"parameterUnit":"m.s-1","parameterCategory":1,"la1":30.2992,"la2":30.254,"lo1":-89.0895,"lo2":-89.0443,"dy":0.0025,"dx":0.0025,"nx":19,"ny":19,"refTime":"2026-03-08T03:00:00:Z","depth":0,"parameterNumber":2,"parameterNumberName":"U-component_of_WINDS"},"data":[0,0,0,-2.4415,-2.4418,-2.4602,-2.4603,-2.4818,-2.482,0,0,0,0,0,0,0,0,0,0,0,-2.4351,-2.4352,-2.4414,-2.4419,-2.4602,-2.4603,-2.4818,-2.482,0,0,0,0,0,0,0,0,0,0,0,-2.4351,-2.4352,-2.4353,-2.4419,-2.4602,-2.4603,-2.4817,-2.4685,0,0,0,0,0,0,0,0,0,0,-2.451,-2.4443,-2.4352,-2.4353,-2.442,-2.4601,-2.4603,-2.4679,-2.4693,-2.4727,0,-2.4757,0,-2.4791,-2.4833,-2.4834,0,0,0,-2.4426,-2.4431,-2.4489,-2.4354,-2.4422,-2.4601,-2.4521,-2.4687,-2.4703,-2.4746,-2.476,-2.4768,-2.4795,-2.4834,-2.4835,-2.501,-2.501,0,0,-2.4415,-2.4379,-2.4478,-2.4499,-2.4472,-2.4515,-2.4527,-2.4697,-2.4709,-2.4761,-2.4774,-2.4798,-2.4836,-2.4837,-2.5009,-2.501,0,0,0,-2.4382,-2.4371,-2.4426,-2.449,-2.4524,-2.452,-2.4534,-2.4702,-2.4723,-2.4776,-2.4801,-2.4837,-2.4839,-2.5009,-2.5009,-2.4998,0,0,0,-2.4376,-2.4352,-2.4421,-2.44,-2.4521,-2.4616,-2.4534,-2.4711,-2.4731,-2.48,-2.4837,-2.4841,-2.5008,-2.5009,-2.4997,-2.4998,0,0,0,-2.4342,-2.4348,-2.4371,-2.4398,-2.4475,-2.4614,-2.4645,-2.4716,-2.4746,-2.4834,-2.4842,-2.5008,-2.5009,-2.4996,-2.4997,-2.5032,0,0,0,-2.4296,-2.436,-2.4371,-2.4451,-2.4474,-2.4606,-2.4644,-2.4744,-2.4818,-2.4838,-2.5008,-2.5009,-2.4996,-2.4997,-2.5031,-2.5053,-2.506,0,0,-2.4356,-2.4365,-2.4416,-2.4431,-2.4552,-2.4581,-2.4699,-2.4802,-2.4843,-2.4951,-2.4956,-2.4997,-2.4997,-2.5031,-2.5111,-2.5115,0,0,0,-2.4422,-2.4458,-2.4498,-2.4566,-2.4646,-2.4713,-2.4801,-2.4838,-2.4932,-2.4892,-2.5021,-2.5022,-2.5043,-2.5056,-2.506,-2.508,-2.5014,-2.5014,-2.5014,-2.4455,-2.4504,-2.4589,-2.466,-2.4725,-2.4814,-2.4871,-2.4936,-2.4968,-2.4997,-2.5029,-2.5071,-2.5084,-2.5088,-2.5108,-2.5046,-2.5046,-2.5046,-2.5046,-2.4546,-2.4603,-2.4641,-2.4738,-2.4788,-2.4869,-2.4955,-2.4974,-2.5055,-2.5052,-2.5073,-2.5064,-2.5092,-2.5111,-2.5046,-2.5046,-2.5046,-2.5046,-2.5046,-2.4572,-2.4608,-2.4652,-2.4754,-2.4826,-2.4895,-2.497,-2.5014,-2.5056,-2.5077,-2.5114,-2.5114,-2.5119,-2.5092,-2.5092,-2.5092,-2.5092,-2.5092,-2.5092,-2.4582,-2.4632,-2.469,-2.4778,-2.4825,-2.4894,-2.4981,-2.5029,-2.5093,-2.5119,-2.512,-2.5145,-2.5086,-2.5069,-2.5095,-2.5094,-2.5094,-2.5094,-2.5094,-2.4655,-2.4644,-2.4735,-2.4783,-2.4887,-2.4954,-2.5008,-2.5101,-2.5147,-2.5182,-2.5204,-2.5153,-2.5166,-2.5163,-2.5149,-2.5194,-2.5194,-2.5194,-2.5194,-2.4675,-2.4686,-2.4787,-2.486,-2.4936,-2.4993,-2.5091,-2.5158,-2.5225,-2.5256,-2.5256,-2.5241,-2.5236,-2.5252,-2.5248,-2.5235,-2.5302,-2.5302,-2.5302,-2.4722,-2.4741,-2.4817,-2.4883,-2.4967,-2.5037,-2.5129,-2.5209,-2.5284,-2.5307,-2.528,-2.5276,-2.5253,-2.5244,-2.5266,-2.5257,-2.5236,0,0]},{"header":{"parameterUnit":"m.s-1","parameterCategory":1,"la1":30.2992,"la2":30.254,"lo1":-89.0895,"lo2":-89.0443,"dy":0.0025,"dx":0.0025,"nx":19,"ny":19,"refTime":"2026-03-08T03:00:00:Z","depth":0,"parameterNumber":3,"parameterNumberName":"V-component_of_WINDS"},"data":[0,0,0,2.5121,2.5123,2.5185,2.5185,2.5258,2.5259,0,0,0,0,0,0,0,0,0,0,0,2.5101,2.5101,2.5121,2.5123,2.5185,2.5185,2.5258,2.5259,0,0,0,0,0,0,0,0,0,0,0,2.51,2.5101,2.5102,2.5123,2.5185,2.5185,2.5258,2.5213,0,0,0,0,0,0,0,0,0,0,2.5153,2.5132,2.5101,2.5102,2.5123,2.5185,2.5185,2.5211,2.5216,2.5228,0,2.524,0,2.5251,2.5263,2.5264,0,0,0,2.5123,2.5128,2.5148,2.5102,2.5124,2.5185,2.5157,2.5213,2.5219,2.5234,2.5241,2.5244,2.5252,2.5264,2.5264,2.5338,2.5338,0,0,2.512,2.511,2.5144,2.5151,2.5144,2.5155,2.5159,2.5217,2.5222,2.5241,2.5246,2.5253,2.5264,2.5265,2.5338,2.5338,0,0,0,2.511,2.5107,2.5125,2.5148,2.516,2.5157,2.5161,2.522,2.5227,2.5246,2.5254,2.5265,2.5266,2.5337,2.5338,2.5344,0,0,0,2.5108,2.5101,2.5124,2.5118,2.5159,2.5191,2.5163,2.5223,2.523,2.5254,2.5265,2.5266,2.5337,2.5337,2.5343,2.5348,0,0,0,2.5097,2.51,2.5109,2.5118,2.5144,2.519,2.5201,2.5225,2.5234,2.5264,2.5266,2.5337,2.5337,2.5342,2.5346,2.5365,0,0,0,2.5082,2.5111,2.5109,2.5144,2.5144,2.5195,2.52,2.5238,2.5264,2.5265,2.5337,2.5338,2.5342,2.5346,2.5364,2.5378,2.5383,0,0,2.5113,2.5115,2.5137,2.5136,2.5186,2.5186,2.5236,2.5268,2.5278,2.5317,2.5319,2.5343,2.5346,2.5364,2.5417,2.5421,0,0,0,2.5143,2.5158,2.5174,2.52,2.5227,2.5251,2.5277,2.5289,2.5323,2.5297,2.5356,2.5358,2.5368,2.5375,2.5379,2.5389,2.5341,2.5341,2.5341,2.517,2.5185,2.5223,2.5246,2.5271,2.53,2.5321,2.5342,2.5347,2.5361,2.5372,2.5402,2.541,2.5413,2.5423,2.5381,2.5381,2.5381,2.5381,2.5216,2.524,2.5251,2.5291,2.5306,2.5339,2.5368,2.5371,2.5403,2.5394,2.5405,2.5393,2.5417,2.5426,2.5382,2.5382,2.5381,2.5381,2.5381,2.5234,2.5249,2.5266,2.5307,2.5337,2.5359,2.539,2.5402,2.5414,2.5424,2.5437,2.5437,2.5438,2.543,2.543,2.543,2.543,2.543,2.543,2.5246,2.5266,2.5292,2.5326,2.5346,2.5373,2.5404,2.5422,2.5446,2.5452,2.5452,2.5456,2.5417,2.5406,2.5432,2.5432,2.5432,2.5431,2.5431,2.5285,2.528,2.532,2.534,2.5382,2.5411,2.5428,2.5466,2.5483,2.5498,2.5501,2.547,2.5471,2.5469,2.546,2.5498,2.5498,2.5498,2.5498,2.53,2.5304,2.5349,2.5381,2.5413,2.5433,2.5477,2.5502,2.5526,2.5537,2.5534,2.5524,2.5521,2.5524,2.552,2.5512,2.5562,2.5562,2.5562,2.5325,2.5333,2.5368,2.5395,2.543,2.5459,2.5501,2.5535,2.556,2.5565,2.5546,2.5544,2.5528,2.5522,2.5524,2.5518,2.5503,0,0]}]]